OneWeb SL0435

operational
NORAD ID: 51632 Int'l Des: 2022-012 Owner: ONEWEBN Country: UK Constellation: oneweb
LEOCIRCULARPOLARONEWEB_TYPE

About OneWeb SL0435

Description loading...

Live Position

Loading 3D Globe...

Upcoming Passes

Altitude History

Altitude vs Time

uPlot chart will show altitude changes over time

Two-Line Element Set

1 51632U 22012L 25352.22832852 .00000502 00000-0 14021-2 0 9990
2 51632 87.8803 72.3601 0001953 94.0287 266.1064 13.10371272185613
Epoch: Dec 18, 2025 • Age: 8 hours

Current Status

Altitude 1232.9 km
Velocity 7.25 km/s
Sub-Earth Point 72.73°N, 42.25°W
Launch Date Feb 10, 2022
Age 3.8 years
Type internet

Technical Details

Classification Payload
Mass 148.00 kg
Dry Mass 140.00 kg
Total Mass 148.00 kg
Length 1.30 m
Diameter 1.00 m
Span 5.00 m
Shape Trapezoid+2 pan
Manufacturer ONEWUS
Bus Type ARROW
Phase Status In Orbit
Owner/State ONEWEBN/UK

Large Constellations

Loading constellations...